This demonstration page uses our WeatherBlox Daily Observations layout. Learn more.

Left ArrowRight Arrow

39.95238, -75.16362

Hourly Observations for January 3, 2022

Temp ( °F °C ) Dew Point ( °F °C ) Humidity (%) Winds ( mph kmh ) Pressure ( in mb ) Visibility ( mi km ) Precip ( " mm )
12:54 am 00:54 Cloudy 38 3.3 26 -3.3 62 62 N 9 15 30.08 1019 10 16 0.00 0.00
1:54 am 01:54 Cloudy 38 3.3 25 -3.9 60 60 N 16 26 30.09 1019 10 16 0.00 0.00
2:54 am 02:54 Cloudy 37 2.8 25 -3.9 62 62 N 16 26 30.05 1018 10 16 0.00 0.00
3:54 am 03:54 Cloudy 37 2.8 25 -3.9 62 62 N 9 15 30.07 1018 10 16 0.00 0.00
4:54 am 04:54 Cloudy 37 2.8 25 -3.9 62 62 N 14 22 30.08 1019 10 16 0.00 0.00
4:59 am 04:59 Cloudy with Light Snow 37 2.8 25 -3.9 62 62 N 12 19 30.08 1019 6 10 0.00 0.00
5:12 am 05:12 Cloudy with Light Snow 36 2.2 26 -3.3 67 67 N 14 22 30.07 1018 4 6 0.00 0.00
5:54 am 05:54 Cloudy with Light Snow 35 1.7 26 -3.3 70 70 NNE 13 20 30.07 1018 4 6 0.00 0.00
6:54 am 06:54 Cloudy with Light Snow 34 1.1 26 -3.3 73 73 NNE 17 28 30.07 1018 5 8 0.00 0.00
7:33 am 07:33 Windy with Snow Likely 34 1.1 24 -4.4 67 67 NNE 20 31 30.07 1018 7 11 0.00 0.00
7:54 am 07:54 Cloudy with Light Snow 34 1.1 24 -4.4 67 67 NNE 16 26 30.08 1019 10 16 0.00 0.00
8:47 am 08:47 Cloudy 34 1.1 23 -5 64 64 N 21 33 30.07 1018 10 16 0.00 0.00
8:54 am 08:54 Cloudy 34 1.1 22 -5.6 61 61 NNE 21 33 30.08 1019 10 16 0.00 0.00
9:33 am 09:33 Windy with Snow Likely 34 1.1 21 -6.1 59 59 N 20 31 30.12 1020 10 16 0.00 0.00
9:49 am 09:49 Cloudy with Light Snow 34 1 21 -6 60 60 N 17 28 30.13 1020 3 5 0.00 0.00
9:51 am 09:51 Cloudy with Light Snow 34 1 21 -6 60 60 NNE 13 20 30.13 1020 2 3 0.00 0.00
9:54 am 09:54 Cloudy with Light Snow 33 0.6 23 -5 66 66 NNE 14 22 30.13 1020 2 3 0.00 0.00
9:57 am 09:57 Cloudy with Light Snow 33 0.6 23 -5 66 66 NE 13 20 30.13 1020 2 2 0.00 0.00
10:03 am 10:03 Cloudy with Light Snow 32 0 24 -4.4 73 73 NE 12 19 30.14 1021 1 2 0.00 0.00
10:17 am 10:17 Cloudy with Light Snow 32 0 24 -4.4 73 73 NE 13 20 30.14 1021 1 1 0.01 0.25
10:44 am 10:44 Cloudy with Snow 31 -0.6 26 -3.3 82 82 NE 12 19 30.10 1019 1 1 0.03 0.76
10:54 am 10:54 Cloudy with Snow 31 -0.6 27 -2.8 85 85 NNE 15 24 30.10 1019 1 1 0.04 1.02
11:01 am 11:01 Cloudy with Light Snow 31 -0.6 27 -2.8 85 85 NNE 12 19 30.11 1020 1 1 0.01 0.25
11:54 am 11:54 Cloudy with Light Snow 31 -0.6 27 -2.8 85 85 NNE 13 20 30.04 1017 1 1 0.04 1.02
12:17 pm 12:17 Cloudy with Light Snow 31 -0.6 27 -2.8 85 85 NNE 12 19 30.00 1016 1 2 0.01 0.25
12:24 pm 12:24 Cloudy with Light Snow 31 -0.6 27 -2.8 85 85 NE 15 24 30.00 1016 5 8 0.01 0.25
12:31 pm 12:31 Cloudy with Light Snow 31 -0.6 26 -3.3 82 82 NNE 13 20 30.02 1017 7 11 0.01 0.25
12:47 pm 12:47 Cloudy 32 0 25 -3.9 75 75 N 15 24 30.01 1016 10 16 0.01 0.25
12:54 pm 12:54 Cloudy with Light Wintry Mix 33 0.6 24 -4.4 70 70 N 20 31 30.00 1016 10 16 0.01 0.25
12:56 pm 12:56 Cloudy 33 0.6 23 -5 66 66 N 17 28 30.00 1016 10 16 0.00 0.00
1:54 pm 13:54 Cloudy 33 0.6 19 -7.2 56 56 N 21 33 29.96 1015 10 16 0.00 0.00
2:54 pm 14:54 Cloudy 33 0.6 17 -8.3 52 52 N 16 26 30.00 1016 10 16 0.00 0.00
3:54 pm 15:54 Mostly Cloudy 33 0.6 13 -10.6 43 43 N 20 31 30.05 1018 10 16 0.00 0.00
4:54 pm 16:54 Mostly Cloudy 33 0.6 12 -11.1 42 42 N 14 22 30.09 1019 10 16 0.00 0.00
5:54 pm 17:54 Mostly Cloudy 32 0 14 -10 47 47 NNW 17 28 30.13 1020 10 16 0.00 0.00
6:54 pm 18:54 Partly Cloudy 30 -1.1 11 -11.7 45 45 NNW 20 31 30.17 1022 10 16 0.00 0.00
7:54 pm 19:54 Mostly Clear 29 -1.7 11 -11.7 47 47 NNW 22 35 30.20 1023 10 16 0.00 0.00
8:54 pm 20:54 Clear 28 -2.2 11 -11.7 49 49 NNW 24 39 30.22 1023 10 16 0.00 0.00
9:54 pm 21:54 Clear 27 -2.8 10 -12.2 49 49 NNW 18 30 30.25 1024 10 16 0.00 0.00
10:54 pm 22:54 Clear 26 -3.3 8 -13.3 46 46 NNW 16 26 30.28 1025 10 16 0.00 0.00
11:54 pm 23:54 Clear 25 -3.9 7 -13.9 46 46 NNW 17 28 30.31 1026 10 16 0.00 0.00

Powered by AerisWeather